Weather History for Waterville, ME

Change the Weather History Date:

Friday, April 5, 2013

  Actual Average Record
Temperature  
Mean Temperature 44 °F -  
Max Temperature 55 °F 51 °F 72 °F (1991)
Min Temperature 32 °F 31 °F 16 °F (1982)
Degree Days  
Heating Degree Days 22    
Moisture  
Dew Point 24 °F    
Average Humidity 53    
Maximum Humidity 87    
Minimum Humidity 25    
Precipitation  
Precipitation 0.00 in - - ()
Sea Level Pressure  
Sea Level Pressure 29.73 in    
Wind  
Wind Speed 7 mph (SW)    
Max Wind Speed 21 mph    
Max Gust Speed 29 mph    
Visibility 10 miles    
Events      
Averages and records for this station are not official NWS values.
T = Trace of Precipitation, MM = Missing Value Source: NWS Daily Summary

Daily Weather History Graph

Daily Weather History Graph

Search for Another Location

Airport:

Trip Planner

Search our weather history database for the weather conditions in past years. The results will help you decide how hot, cold, wet, or windy it might be!

Date:

Astronomy

Apr. 05, 2013 Rise Set
Actual Time 6:12 AM EDT 7:11 PM EDT
Civil Twilight 5:42 AM EDT 7:41 PM EDT
Nautical Twilight 5:07 AM EDT 8:16 PM EDT
Astronomical Twilight 4:29 AM EDT 8:53 PM EDT
Moon 3:28 AM EDT (4/5) 2:21 PM EDT (4/5)
Length of Visible Light 13h 58m
Length of Day
12h 59m
Waning Crescent, 24% of the Moon is Illuminated
Apr 5
Waning Crescent
Apr 10
New
Apr 18
First Quarter
Apr 25
Full
May 2
Last Quarter

Hourly Weather History & Observations

Time (EDT) Temp. Windchill Dew Point Humidity Pressure Visibility Wind Dir Wind Speed Gust Speed Precip Events Conditions
12:15 AM 33.8 °F 30.8 °F 28.4 °F 81% 29.90 in 10.0 mi South 3.5 mph - N/A   Clear
12:35 AM 33.8 °F 29.6 °F 28.4 °F 81% 29.90 in 10.0 mi South 4.6 mph - N/A   Clear
12:55 AM 33.8 °F 30.8 °F 26.6 °F 75% 29.89 in 10.0 mi SSW 3.5 mph - N/A   Clear
1:15 AM 33.8 °F 30.8 °F 28.4 °F 81% - 10.0 mi South 3.5 mph - N/A   Clear
1:35 AM 33.8 °F 29.6 °F 28.4 °F 81% - 10.0 mi SSW 4.6 mph - N/A   Clear
1:55 AM 33.8 °F 29.6 °F 28.4 °F 81% 29.88 in 10.0 mi SSW 4.6 mph - N/A   Clear
2:15 AM 33.8 °F 27.0 °F 28.4 °F 81% 29.87 in 10.0 mi SSW 8.1 mph - N/A   Clear
2:35 AM 32.0 °F 26.4 °F 28.4 °F 87% - 10.0 mi SSW 5.8 mph - N/A   Clear
2:55 AM 33.8 °F 28.6 °F 28.4 °F 81% 29.85 in 10.0 mi SSW 5.8 mph - N/A   Clear
3:35 AM 33.8 °F 29.6 °F 26.6 °F 75% - 10.0 mi SSW 4.6 mph - N/A   Clear
3:55 AM 33.8 °F 28.6 °F 26.6 °F 75% 29.84 in 10.0 mi SSW 5.8 mph - N/A   Clear
4:15 AM 33.8 °F 29.6 °F 26.6 °F 75% - 10.0 mi SSW 4.6 mph - N/A   Clear
4:35 AM 33.8 °F 28.6 °F 26.6 °F 75% - 10.0 mi South 5.8 mph - N/A   Clear
4:55 AM 33.8 °F 27.7 °F 26.6 °F 75% - 10.0 mi South 6.9 mph - N/A   Clear
5:15 AM 33.8 °F 27.7 °F 26.6 °F 75% 29.83 in 10.0 mi SSW 6.9 mph - N/A   Clear
5:35 AM 33.8 °F 30.8 °F 26.6 °F 75% 29.83 in 10.0 mi SSW 3.5 mph - N/A   Clear
5:55 AM 33.8 °F 28.6 °F 26.6 °F 75% 29.81 in 10.0 mi South 5.8 mph - N/A   Clear
6:15 AM 33.8 °F 28.6 °F 26.6 °F 75% 29.82 in 10.0 mi SSW 5.8 mph - N/A   Clear
6:35 AM 33.8 °F 28.6 °F 24.8 °F 70% 29.81 in 10.0 mi South 5.8 mph - N/A   Clear
6:55 AM 35.6 °F 30.7 °F 24.8 °F 65% 29.80 in 10.0 mi South 5.8 mph - N/A   Clear
7:15 AM 33.8 °F 28.6 °F 24.8 °F 70% 29.81 in 10.0 mi SSW 5.8 mph - N/A   Clear
7:35 AM 35.6 °F 29.9 °F 24.8 °F 65% 29.80 in 10.0 mi South 6.9 mph - N/A   Clear
7:55 AM 35.6 °F 30.7 °F 24.8 °F 65% - 10.0 mi South 5.8 mph - N/A   Clear
8:15 AM 37.4 °F 32.8 °F 24.8 °F 60% - 10.0 mi SSW 5.8 mph - N/A   Clear
8:35 AM 37.4 °F 32.1 °F 24.8 °F 60% - 10.0 mi SSW 6.9 mph - N/A   Clear
8:55 AM 37.4 °F 31.4 °F 24.8 °F 60% - 10.0 mi SSW 8.1 mph - N/A   Clear
9:15 AM 39.2 °F 33.6 °F 24.8 °F 56% - 10.0 mi SSW 8.1 mph - N/A   Clear
9:35 AM 39.2 °F 32.5 °F 24.8 °F 56% 29.77 in 10.0 mi SSW 10.4 mph - N/A   Clear
9:55 AM 42.8 °F 37.0 °F 24.8 °F 49% 29.77 in 10.0 mi SSW 10.4 mph - N/A   Clear
10:15 AM 44.6 °F 39.7 °F 24.8 °F 46% 29.76 in 10.0 mi SSW 9.2 mph - N/A   Clear
10:35 AM 44.6 °F 40.2 °F 24.8 °F 46% 29.75 in 10.0 mi SSW 8.1 mph - N/A   Clear
10:55 AM 46.4 °F 44.3 °F 24.8 °F 43% 29.74 in 10.0 mi SSE 4.6 mph - N/A   Clear
11:15 AM 48.2 °F - 24.8 °F 40% 29.74 in 10.0 mi South 6.9 mph - N/A   Clear
11:35 AM 48.2 °F - 24.8 °F 40% 29.73 in 10.0 mi South 8.1 mph 17.3 mph N/A   Clear
11:55 AM 50.0 °F - 24.8 °F 37% 29.72 in 10.0 mi SSE 9.2 mph - N/A   Clear
12:15 PM 51.8 °F - 21.2 °F 30% 29.70 in 10.0 mi SSW 5.8 mph - N/A   Clear
12:35 PM 51.8 °F - 19.4 °F 28% 29.69 in 10.0 mi South 9.2 mph 18.4 mph N/A   Clear
12:55 PM 53.6 °F - 21.2 °F 28% 29.68 in 10.0 mi SW 10.4 mph - N/A   Clear
1:15 PM 53.6 °F - 19.4 °F 26% 29.67 in 10.0 mi WSW 8.1 mph 18.4 mph N/A   Clear
1:35 PM 53.6 °F - 21.2 °F 28% 29.66 in 10.0 mi WSW 9.2 mph - N/A   Clear
1:56 PM 53.6 °F - 19.4 °F 26% 29.65 in 10.0 mi SSW 10.4 mph 16.1 mph N/A   Clear
2:15 PM 53.6 °F - 19.4 °F 26% 29.64 in 10.0 mi SSW 8.1 mph 19.6 mph N/A   Partly Cloudy
2:35 PM 53.6 °F - 19.4 °F 26% 29.64 in 10.0 mi SSW 11.5 mph - N/A   Clear
2:55 PM 53.6 °F - 21.2 °F 28% 29.63 in 10.0 mi WSW 8.1 mph - N/A   Clear
3:15 PM 55.4 °F - 19.4 °F 25% 29.63 in 10.0 mi WNW 16.1 mph 20.7 mph N/A   Partly Cloudy
3:35 PM 53.6 °F - 21.2 °F 28% 29.63 in 10.0 mi WNW 15.0 mph 23.0 mph N/A   Partly Cloudy
3:55 PM 51.8 °F - 21.2 °F 30% 29.63 in 10.0 mi NW 13.8 mph 20.7 mph N/A   Clear
4:15 PM 53.6 °F - 24.8 °F 33% 29.62 in 10.0 mi NW 11.5 mph 19.6 mph N/A   Scattered Clouds
4:35 PM 51.8 °F - 21.2 °F 30% 29.63 in 10.0 mi WNW 18.4 mph 26.5 mph N/A   Mostly Cloudy
4:55 PM 51.8 °F - 21.2 °F 30% 29.63 in 10.0 mi NW 16.1 mph 24.2 mph N/A   Mostly Cloudy
5:15 PM 51.8 °F - 19.4 °F 28% 29.64 in 10.0 mi WNW 20.7 mph 25.3 mph N/A   Partly Cloudy
5:35 PM 48.2 °F - 21.2 °F 34% 29.65 in 10.0 mi WNW 15.0 mph 28.8 mph N/A   Clear
5:55 PM 46.4 °F 40.1 °F 21.2 °F 37% 29.66 in 10.0 mi NW 15.0 mph 23.0 mph N/A   Clear
6:15 PM 46.4 °F 39.8 °F 19.4 °F 34% 29.67 in 10.0 mi NW 16.1 mph 25.3 mph N/A   Mostly Cloudy
6:35 PM 46.4 °F 40.1 °F 17.6 °F 32% 29.68 in 10.0 mi WNW 15.0 mph 19.6 mph N/A   Partly Cloudy
6:55 PM 44.6 °F 40.2 °F 19.4 °F 37% 29.68 in 10.0 mi WNW 8.1 mph - N/A   Clear
7:15 PM 44.6 °F 39.7 °F 19.4 °F 37% 29.68 in 10.0 mi NW 9.2 mph - N/A   Clear
7:35 PM 42.8 °F 35.4 °F 19.4 °F 39% 29.69 in 10.0 mi WNW 15.0 mph - N/A   Clear
7:55 PM 42.8 °F 35.1 °F 23.0 °F 46% 29.70 in 10.0 mi WNW 16.1 mph 23.0 mph N/A   Clear
8:15 PM 41.0 °F 34.7 °F 24.8 °F 53% 29.72 in 10.0 mi NNW 10.4 mph - N/A   Clear
8:35 PM 39.2 °F 33.0 °F 24.8 °F 56% 29.73 in 10.0 mi NW 9.2 mph - N/A   Clear
8:55 PM 37.4 °F 28.5 °F 24.8 °F 60% 29.74 in 10.0 mi NNW 15.0 mph 18.4 mph N/A   Clear
9:15 PM 37.4 °F 29.3 °F 24.8 °F 60% 29.74 in 10.0 mi NW 12.7 mph - N/A   Partly Cloudy
9:35 PM 37.4 °F 31.4 °F 24.8 °F 60% 29.75 in 10.0 mi NW 8.1 mph - N/A   Clear
9:55 PM 37.4 °F 31.4 °F 24.8 °F 60% - 10.0 mi NNW 8.1 mph - N/A   Mostly Cloudy
10:15 PM 37.4 °F 28.5 °F 23.0 °F 56% - 10.0 mi NNW 15.0 mph 18.4 mph N/A   Overcast
10:35 PM 37.4 °F 28.5 °F 21.2 °F 52% - 10.0 mi NNW 15.0 mph 23.0 mph N/A   Overcast
10:55 PM 35.6 °F 27.5 °F 19.4 °F 52% - 10.0 mi NNW 11.5 mph - N/A   Mostly Cloudy
11:15 PM 35.6 °F 28.0 °F 19.4 °F 52% - 10.0 mi NW 10.4 mph - N/A   Partly Cloudy
11:35 PM 35.6 °F 29.2 °F 19.4 °F 52% - 10.0 mi NW 8.1 mph - N/A   Partly Cloudy
11:55 PM 35.6 °F 28.6 °F 19.4 °F 52% - 10.0 mi NW 9.2 mph - N/A   Mostly Cloudy